Showing default

AAC-HSI-SAT3, 58848

Orbit data source: Space-Track

AAC-HSI-SAT3, 58848 is a UK payload satellite in SSO that was launched on Sat, 11 Nov 2023 UTC via an FALCON 9 launch vehicle from the Air Force Western Test Range (AFWTR). Payload-class satellites include a variety of spacecraft equipped with specific instruments for various scientific and technological missions. These include communications satellites like Starlink; space stations such as the ISS; scientific satellites like the Hubble; Earth observation satellites from companies like Planet Labs, Umbra, and HawkEye 360; GPS; miniature CubeSats for education and research; and military/defense satellites.

Loading next visibility...
Identifier
58848, 2023-174DH
Orbit
SSO
Country
Flag of UKUK
Related business
Manufacturer
AAC ClydeSpace
Mission
Operational Commercial Imaging
Bus & Motor
CUBESAT 6U, Unknown motor
Mass
10 kg wet, ~10 kg dry
Launch date (UTC)
2023-11-11 (2 years ago)
Launch vehicle
FALCON 9
Launch site
Air Force Western Test Range (AFWTR)
Object type
Payload
Rocket body
Debris
Shape & HBR
Box + 2 Pan, 1.0 m
Radar Cross Section
0.092 m², Medium (>0.1 m² and < 1m²)

Expand to show TLE details & history
Last TLE update: 7 hours ago

TLE from 7 hours ago
0 AAC-HSI-SAT3
1 58848U 23174DH  26126.81243731  .00002202  00000-0  11928-3 0  9996
2 58848  97.3428 187.5726 0011637 145.2542 214.9453 15.15573556137636
Epoch: 2026-05-06T19:29Z
TLE epoch observation values (Epoch: 2026-05-06T19:29:54.583Z)
Latitude
-0.00004°
Longitude
30.42762°
Altitude
528.908 km
Speed
7.595 km/s
True Right ascension
12h 30m 17s
True Declination
0° 00' 00"
Sunlit
Object was in full shadow at epoch
Visualization orbit readout
Latitude
Unknown
Longitude
Unknown
Altitude
Unknown
Speed
Unknown
Apparent Right ascension
Unknown
Apparent Declination
Unknown
Sunlit
N/A
Visualization observer readout
Local Sidereal Time
10:21:29
Azimuth
Unknown
Elevation
Unknown
Doppler factor
Unknown
Orbital elements
Apogee altitude
524.23 km
Perigee altitude
508.184 km
Semi-major axis
6,894.344 km
Eccentricity
0.00116
Inclination
97.3428°
RAAN
187.5726°
Arg. of periapsis
145.2542°
True anomaly
214.86901°
Mean anomaly
214.9453°
Eccentric anomaly
214.90715°
Mean motion
3.79144 °/min
Orbital period
94.95 mins
BSTAR
0.00011928
Loading maneuver chart data...
Computing Atmospheric mass density...
Loading historical data...
Loading historical data...
Loading historical data...
Loading historical data...
Loading historical data...
Loading historical data...
Loading historical data...

Documentation

Showing up to 5 results
|